Location: Krakow
(50.0830°N, 19.9170°E)
Time: 20:08:04
(UTC+01:00)

Altair - Pass Details

Date: 05 December 2023
Orbit: 1501 x 1682 km, 47.2° (Epoch: 03 March)

Event Time Altitude Azimuth Distance (km) Brightness Sun altitude
Rises 14:20:12 0° 288° (WNW) 4,696 10.3 8.4°
Reaches altitude 10° 14:23:39 10° 279° (W) 3,692 10.0 8.1°
Maximum altitude 14:31:30 33° 221° (SW) 2,338 9.9 7.3°
Drops below altitude 10° 14:39:15 10° 162° (SSE) 3,645 9.9 6.4°
Sets 14:42:39 0° 153° (SSE) 4,629 10.3 6.1°
